Burns Flat, OK

7:37 AM CST on December 05, 2016 (GMT -0600)
Clinton-Sherman

Weather History for KCSM - January, 2015

Change the Weather History Date:

Friday, January 2, 2015

  Actual Average Record
Temperature  
Mean Temperature 32 °F -  
Max Temperature 35 °F 47 °F 77 °F (1997)
Min Temperature 28 °F 28 °F 16 °F (2011)
Degree Days  
Heating Degree Days 34    
Moisture  
Dew Point 28 °F    
Average Humidity 83    
Maximum Humidity 92    
Minimum Humidity 72    
Precipitation  
Precipitation 0.03 in - - ()
Sea Level Pressure  
Sea Level Pressure 30.15 in    
Wind  
Wind Speed 5 mph (East)    
Max Wind Speed 9 mph    
Max Gust Speed -    
Visibility 7 miles    
Events Rain    
Averages and records for this station are not official NWS values.
T = Trace of Precipitation, MM = Missing Value Source: NWS Daily Summary

Daily Weather History Graph

Daily Weather History Graph

Search for Another Location

Airport or City:

Trip Planner

Search our weather history database for the weather conditions in past years. The results will help you decide how hot, cold, wet, or windy it might be!

Date:

Astronomy

Jan. 02, 2015 Rise Set
Actual Time 7:45 AM CST 5:35 PM CST
Civil Twilight 7:17 AM CST 6:04 PM CST
Nautical Twilight 6:45 AM CST 6:35 PM CST
Astronomical Twilight 6:15 AM CST 7:06 PM CST
Moon 3:53 PM CST (1/2) 5:17 AM CST (1/2)
Length of Visible Light 10h 46m
Length of Day
9h 50m
Waxing Gibbous, 94% of the Moon is Illuminated
Jan 2
Waxing Gibbous
Jan 4
Full
Jan 13
Last Quarter
Jan 20
New
Jan 26
First Quarter

Hourly Weather History & Observations

Time (CST) Temp. Windchill Dew Point Humidity Pressure Visibility Wind Dir Wind Speed Gust Speed Precip Events Conditions
12:53 AM 28.0 °F 20.8 °F 26.1 °F 92% 30.22 in 7.0 mi West 6.9 mph - N/A   Overcast
1:53 AM 28.9 °F 20.4 °F 26.1 °F 89% 30.24 in 7.0 mi West 9.2 mph - N/A   Overcast
2:53 AM 30.0 °F 24.1 °F 27.0 °F 88% 30.24 in 9.0 mi West 5.8 mph - N/A   Overcast
3:53 AM 30.0 °F 24.1 °F 27.0 °F 88% 30.23 in 9.0 mi NW 5.8 mph - N/A   Overcast
4:53 AM 30.9 °F 26.2 °F 27.0 °F 85% 30.21 in 8.0 mi NW 4.6 mph - N/A   Overcast
5:53 AM 30.9 °F 26.2 °F 27.0 °F 85% 30.21 in 7.0 mi NNW 4.6 mph - N/A   Overcast
6:33 AM 30.9 °F 22.8 °F 27.0 °F 85% 30.15 in 7.0 mi NNW 9.2 mph - N/A   Overcast
6:53 AM 32.0 °F 25.6 °F 26.1 °F 79% 30.19 in 8.0 mi North 6.9 mph - N/A   Overcast
7:53 AM 32.0 °F 28.7 °F 27.0 °F 82% 30.23 in 7.0 mi NNE 3.5 mph - N/A   Overcast
8:53 AM 32.0 °F 25.6 °F 26.1 °F 79% 30.24 in 7.0 mi NNW 6.9 mph - N/A   Mostly Cloudy
9:51 AM 32.0 °F 27.5 °F 26.6 °F 80% 30.21 in 8.0 mi ESE 4.6 mph - N/A   Overcast
9:53 AM 32.0 °F 27.5 °F 26.1 °F 79% 30.26 in 7.0 mi ESE 4.6 mph - N/A   Overcast
10:23 AM 32.0 °F 27.5 °F 27.0 °F 82% 30.23 in 7.0 mi South 4.6 mph - N/A   Overcast
10:53 AM 32.0 °F 25.6 °F 28.0 °F 85% 30.25 in 5.0 mi SE 6.9 mph - N/A   Overcast
11:00 AM 32.0 °F 26.4 °F 28.0 °F 85% 30.22 in 6.0 mi South 5.8 mph - N/A   Overcast
11:28 AM 32.0 °F 28.7 °F 28.0 °F 85% 30.18 in 6.0 mi ESE 3.5 mph - N/A   Overcast
11:53 AM 32.0 °F 25.6 °F 28.9 °F 88% 30.23 in 6.0 mi West 6.9 mph - N/A   Overcast
12:35 PM 33.1 °F - 28.0 °F 82% 30.14 in 6.0 mi Calm Calm - N/A   Haze
12:53 PM 33.1 °F - 28.0 °F 82% 30.17 in 6.0 mi Calm Calm - N/A   Haze
1:53 PM 34.0 °F - 28.0 °F 79% 30.12 in 7.0 mi Calm Calm - N/A   Mostly Cloudy
2:53 PM 34.0 °F - 28.0 °F 79% 30.12 in 7.0 mi Calm Calm - N/A   Overcast
3:53 PM 35.1 °F - 28.0 °F 76% 30.11 in 7.0 mi Calm Calm - N/A   Overcast
4:53 PM 35.1 °F - 27.0 °F 72% 30.10 in 8.0 mi Calm Calm - N/A   Overcast
5:53 PM 34.0 °F 29.8 °F 27.0 °F 75% 30.10 in 9.0 mi ESE 4.6 mph - N/A   Overcast
6:53 PM 34.0 °F 29.8 °F 27.0 °F 75% 30.09 in 9.0 mi ESE 4.6 mph - N/A   Overcast
7:53 PM 34.0 °F 31.0 °F 27.0 °F 75% 30.07 in 9.0 mi ESE 3.5 mph - N/A   Overcast
8:53 PM 34.0 °F - 28.0 °F 79% 30.04 in 8.0 mi Calm Calm - 0.00 in   Overcast
9:53 PM 34.0 °F - 30.0 °F 85% 30.04 in 6.0 mi Calm Calm - 0.01 in Rain Light Rain
10:00 PM 33.1 °F 28.7 °F 30.0 °F 89% 30.00 in 6.0 mi SSE 4.6 mph - 0.01 in Rain Light Rain
10:35 PM 33.1 °F 28.7 °F 30.0 °F 89% 29.97 in 6.0 mi East 4.6 mph - 0.02 in   Overcast
10:53 PM 33.1 °F 28.7 °F 28.9 °F 85% 30.00 in 6.0 mi NE 4.6 mph - 0.02 in   Overcast
11:53 PM 32.0 °F - 28.9 °F 88% 29.99 in 6.0 mi Calm Calm - N/A   Overcast